COSMOS 2461 (735)

Last updated on July 6, 2021, 3:39 p.m. UTC

1 36401U 10007B   21186.54972358 -.00000050  00000-0  00000-0 0  9999
2 36401  65.9550  15.0702 0020660  13.6069  11.9207  2.13103714 88301
UTC
Height (km)
Latitude
Longitude
Inclination
Orbital Period
UTC large
Height (km)
Speed (km/s)
/
Latitude / Longitude
Inclination (degrees)
Orbital Period (minutes)
Azimuth
Elevation
Range (km)
Doppler Factor
iOS Compass Heading
iOS Angle